Location: Bonny Doon Airfield
(37.0704°N, 122.1252°W)
Time: 11:45:11
(UTC-07:00)

BREEZE M DEB (TANK) - Visible Passes

Search period start: 25 July 2017 00:00
Search period end: 04 August 2017 00:00
Orbit: 318 x 13701 km, 49.5° (Epoch: 24 July)

Date Brightness Start Highest point End Pass type
(mag) Time Alt. Az. Time Alt. Az. Time Alt. Az.
25 Jul 5.5 23:21:42 10° W 23:28:46 27° NW 23:31:48 10° NNE visible
26 Jul 3.0 03:56:53 41° NNW 03:57:35 56° NE 04:02:21 10° ESE visible
26 Jul 5.2 20:23:18 10° SW 20:46:58 63° SE 20:52:33 10° ENE visible
27 Jul 4.9 05:40:37 10° W 05:43:47 24° SSW 05:50:43 10° SSE visible
27 Jul 5.1 22:21:23 10° WSW 22:33:16 47° NW 22:37:03 10° NE visible
28 Jul 5.3 03:04:14 14° E 03:04:14 14° E 03:05:01 10° E visible
29 Jul 5.8 00:17:17 10° NW 00:19:17 13° NNW 00:20:22 11° N visible
29 Jul 3.6 04:46:26 26° W 04:47:46 37° SW 04:54:10 10° SSE visible
29 Jul 4.8 21:20:08 10° WSW 21:37:40 73° NW 21:42:10 10° NE visible
30 Jul 5.7 23:17:55 10° W 23:23:27 21° NNW 23:26:12 10° NNE visible
31 Jul 4.1 03:53:49 31° SE 03:53:49 31° SE 03:57:17 10° SE visible
31 Jul 5.1 20:18:06 10° SW 20:41:46 81° SE 20:47:09 10° NE visible
01 Aug 5.1 05:36:17 10° WSW 05:38:58 15° SSW 05:43:25 10° S visible
01 Aug 5.5 22:17:36 10° W 22:27:48 35° NW 22:31:26 10° NE visible
03 Aug 5.9 00:13:05 10° NNW 00:14:13 11° NNW 00:14:26 11° N visible
03 Aug 4.8 04:43:27 21° SSW 04:43:27 21° SSW 04:47:55 10° SSE visible
03 Aug 5.2 21:16:06 10° WSW 21:32:09 56° NW 21:36:33 10° NE visible
